Location: SE Lincoln, NE
(40.7805°N, 96.6275°W)
Time: 07:12:36
(UTC-05:00)

USA 290 - Pass Details

Date: 15 May 2021
Orbit: 400 x 415 km, 73.6° (Epoch: 12 May)

Event Time Altitude Azimuth Distance (km) Brightness Sun altitude
Rises 21:06:31 0° 333° (NNW) 2,340 7.2 -5.7°
Reaches altitude 10° 21:08:37 10° 327° (NNW) 1,472 6.2 -6.0°
Maximum altitude 21:11:42 43° 254° (WSW) 577 3.3 -6.5°
Drops below altitude 10° 21:14:45 10° 181° (S) 1,452 4.7 -7.0°
Sets 21:16:49 0° 175° (S) 2,304 5.6 -7.3°
